JAL617 RKSI-RJAA

Flight info

Callsign JAL617
Flight time 1h 51m
Altitude 39000
Route EGOBA2H EGOBA Y697 KARBU DCT LANAT Y51 SAMON Y517 ESKAS Y303 ENTAK Y30 SWAMP
Aircraft B789/H-SDE1E2E3FGHIJ2J3J4J5M1RWXY/LB1D1

Departure

Time 2026-05-04 23:17
Airport Incheon International Airport (RKSI)

Arrival

Time 2026-05-05 01:09
Airport Narita International Airport (RJAA)
Time Latitude Longitude Altitude Speed Heading
2026-05-04 21:57 37.45546 126.44271 38 ft 0 kts 144°
2026-05-04 22:46 37.45549 126.44268 39 ft 2 kts 145°
2026-05-04 22:46 37.45561 126.44257 39 ft 2 kts 144°
2026-05-04 22:46 37.45574 126.44246 39 ft 2 kts 144°
2026-05-04 22:46 37.45586 126.44236 39 ft 2 kts 145°
2026-05-04 22:47 37.45599 126.44225 39 ft 2 kts 150°
2026-05-04 22:47 37.45612 126.44217 39 ft 2 kts 159°
2026-05-04 22:47 37.45626 126.44211 39 ft 2 kts 166°
2026-05-04 22:47 37.45641 126.44208 39 ft 2 kts 173°
2026-05-04 22:48 37.45656 126.44207 39 ft 2 kts 180°
2026-05-04 22:48 37.45671 126.44208 39 ft 2 kts 187°
2026-05-04 22:48 37.45686 126.44211 39 ft 2 kts 195°
2026-05-04 22:48 37.45700 126.44217 39 ft 2 kts 202°
2026-05-04 22:49 37.45714 126.44225 39 ft 2 kts 209°
2026-05-04 22:49 37.45717 126.44228 39 ft 2 kts 211°
2026-05-04 22:49 37.45723 126.44232 39 ft 2 kts 214°
2026-05-04 22:49 37.45735 126.44244 39 ft 2 kts 221°
2026-05-04 22:50 37.45745 126.44257 39 ft 2 kts 229°
2026-05-04 22:50 37.45752 126.44267 39 ft 1 kts 234°
2026-05-04 22:50 37.45753 126.44269 39 ft 0 kts 234°
2026-05-04 23:08 37.45752 126.44268 39 ft 1 kts 234°
2026-05-04 23:08 37.45739 126.44245 39 ft 6 kts 234°
2026-05-04 23:08 37.45708 126.44191 39 ft 10 kts 233°
2026-05-04 23:09 37.45659 126.44107 39 ft 14 kts 233°
2026-05-04 23:09 37.45600 126.44007 39 ft 14 kts 233°
2026-05-04 23:09 37.45549 126.43915 39 ft 12 kts 237°
2026-05-04 23:09 37.45508 126.43838 39 ft 9 kts 235°
2026-05-04 23:10 37.45474 126.43777 39 ft 8 kts 234°
2026-05-04 23:10 37.45440 126.43717 39 ft 9 kts 235°
2026-05-04 23:10 37.45418 126.43641 39 ft 10 kts 281°
2026-05-04 23:10 37.45469 126.43577 39 ft 12 kts 322°
2026-05-04 23:11 37.45552 126.43501 39 ft 17 kts 325°
2026-05-04 23:11 37.45667 126.43402 39 ft 23 kts 324°
2026-05-04 23:11 37.45809 126.43271 39 ft 28 kts 323°
2026-05-04 23:11 37.45984 126.43115 39 ft 33 kts 325°
2026-05-04 23:12 37.46187 126.42939 39 ft 38 kts 324°
2026-05-04 23:12 37.46403 126.42745 39 ft 37 kts 324°
2026-05-04 23:12 37.46611 126.42561 39 ft 35 kts 325°
2026-05-04 23:12 37.46802 126.42393 39 ft 32 kts 324°
2026-05-04 23:13 37.46977 126.42236 39 ft 30 kts 324°
2026-05-04 23:13 37.47139 126.42092 39 ft 27 kts 324°
2026-05-04 23:13 37.47288 126.41962 39 ft 25 kts 324°
2026-05-04 23:13 37.47390 126.41866 39 ft 10 kts 315°
2026-05-04 23:14 37.47396 126.41794 39 ft 8 kts 243°
2026-05-04 23:14 37.47370 126.41742 39 ft 6 kts 235°
2026-05-04 23:14 37.47366 126.41735 39 ft 0 kts 235°
2026-05-04 23:14 37.47364 126.41733 39 ft 1 kts 235°
2026-05-04 23:15 37.47348 126.41704 39 ft 7 kts 235°
2026-05-04 23:15 37.47322 126.41656 39 ft 6 kts 234°
2026-05-04 23:15 37.47298 126.41616 39 ft 6 kts 232°
2026-05-04 23:15 37.47274 126.41579 39 ft 5 kts 226°
2026-05-04 23:16 37.47251 126.41574 39 ft 2 kts 161°
2026-05-04 23:16 37.47244 126.41580 39 ft 0 kts 144°
2026-05-04 23:16 37.47166 126.41651 39 ft 42 kts 143°
2026-05-04 23:17 37.46739 126.42032 39 ft 107 kts 144°
2026-05-04 23:17 37.45970 126.42718 39 ft 163 kts 145°
2026-05-04 23:17 37.44964 126.43603 563 ft 174 kts 145°
2026-05-04 23:17 37.43910 126.44413 1105 ft 187 kts 155°
2026-05-04 23:18 37.42725 126.45098 1733 ft 193 kts 158°
2026-05-04 23:18 37.41472 126.45798 2567 ft 200 kts 149°
2026-05-04 23:18 37.40373 126.46932 3300 ft 214 kts 142°
2026-05-04 23:18 37.39084 126.47996 3913 ft 232 kts 152°
2026-05-04 23:19 37.37564 126.48822 4537 ft 248 kts 167°
2026-05-04 23:19 37.35825 126.49331 5259 ft 265 kts 166°
2026-05-04 23:19 37.34018 126.49984 6259 ft 272 kts 166°
2026-05-04 23:19 37.32189 126.50591 7253 ft 277 kts 166°
2026-05-04 23:20 37.30330 126.51230 8178 ft 281 kts 166°
2026-05-04 23:20 37.28562 126.52300 8991 ft 291 kts 140°
2026-05-04 23:20 37.27463 126.54409 9814 ft 293 kts 107°
2026-05-04 23:20 37.27308 126.56935 10054 ft 296 kts 85°
2026-05-04 23:21 37.27328 126.59543 9990 ft 299 kts 95°
2026-05-04 23:21 37.27137 126.62233 10364 ft 313 kts 93°
2026-05-04 23:21 37.27223 126.64901 11522 ft 305 kts 84°
2026-05-04 23:21 37.27394 126.67648 11832 ft 330 kts 88°
2026-05-04 23:22 37.27545 126.70663 12160 ft 354 kts 86°
2026-05-04 23:22 37.27716 126.73772 13019 ft 359 kts 87°
2026-05-04 23:22 37.27884 126.76908 13980 ft 360 kts 86°
2026-05-04 23:22 37.28053 126.80063 14839 ft 364 kts 86°
2026-05-04 23:23 37.28225 126.83285 15640 ft 369 kts 86°
2026-05-04 23:23 37.28397 126.86538 16430 ft 373 kts 86°
2026-05-04 23:23 37.28587 126.89826 17187 ft 378 kts 84°
2026-05-04 23:23 37.28914 126.93120 17956 ft 381 kts 83°
2026-05-04 23:24 37.29203 126.96453 18662 ft 386 kts 83°
2026-05-04 23:24 37.29516 126.99830 19391 ft 389 kts 83°
2026-05-04 23:24 37.29820 127.03239 20074 ft 394 kts 83°
2026-05-04 23:24 37.30133 127.06694 20768 ft 398 kts 83°
2026-05-04 23:25 37.30443 127.10165 21403 ft 402 kts 83°
2026-05-04 23:25 37.30938 127.13630 21995 ft 406 kts 72°
2026-05-04 23:25 37.31885 127.16989 22592 ft 409 kts 70°
2026-05-04 23:25 37.32768 127.20403 23222 ft 413 kts 71°
2026-05-04 23:26 37.33821 127.23774 23771 ft 416 kts 60°
2026-05-04 23:26 37.35685 127.26550 24275 ft 416 kts 36°
2026-05-04 23:26 37.38122 127.28550 24897 ft 416 kts 31°
2026-05-04 23:26 37.40518 127.30662 25452 ft 421 kts 34°
2026-05-04 23:27 37.42938 127.32786 25999 ft 425 kts 33°
2026-05-04 23:27 37.45380 127.34949 26552 ft 429 kts 33°
2026-05-04 23:27 37.47727 127.37326 27029 ft 435 kts 45°
2026-05-04 23:27 37.49363 127.40577 27500 ft 443 kts 67°
2026-05-04 23:28 37.50006 127.44394 28071 ft 446 kts 82°
2026-05-04 23:28 37.50490 127.48329 28542 ft 449 kts 77°
2026-05-04 23:28 37.51092 127.52267 29075 ft 452 kts 78°
2026-05-04 23:28 37.51694 127.56190 29737 ft 451 kts 77°
2026-05-04 23:29 37.52304 127.60077 30389 ft 451 kts 77°
2026-05-04 23:29 37.52904 127.63987 30993 ft 450 kts 79°
2026-05-04 23:29 37.52915 127.67937 31423 ft 453 kts 100°
2026-05-04 23:29 37.51895 127.71688 31965 ft 451 kts 114°
2026-05-04 23:30 37.50748 127.75400 32472 ft 450 kts 110°
2026-05-04 23:30 37.49657 127.79144 32954 ft 451 kts 110°
2026-05-04 23:30 37.48570 127.82857 33416 ft 451 kts 110°
2026-05-04 23:30 37.47491 127.86571 33871 ft 451 kts 110°
2026-05-04 23:31 37.46406 127.90300 34327 ft 451 kts 110°
2026-05-04 23:31 37.45314 127.94050 34714 ft 451 kts 110°
2026-05-04 23:31 37.44233 127.97774 35046 ft 452 kts 111°
2026-05-04 23:31 37.43138 128.01531 35348 ft 454 kts 111°
2026-05-04 23:32 37.42047 128.05272 35657 ft 455 kts 111°
2026-05-04 23:32 37.40950 128.09026 35954 ft 456 kts 111°
2026-05-04 23:32 37.39848 128.12797 36232 ft 457 kts 111°
2026-05-04 23:32 37.38744 128.16562 36582 ft 458 kts 111°
2026-05-04 23:33 37.37633 128.20349 36848 ft 460 kts 112°
2026-05-04 23:33 37.36517 128.24149 37115 ft 458 kts 112°
2026-05-04 23:33 37.34271 128.31764 37121 ft 466 kts 112°
2026-05-04 23:34 37.31989 128.39497 37120 ft 477 kts 112°
2026-05-04 23:34 37.29636 128.47439 37108 ft 487 kts 112°
2026-05-04 23:35 37.27228 128.55551 37106 ft 496 kts 112°
2026-05-04 23:35 37.24799 128.63713 37126 ft 496 kts 112°
2026-05-04 23:36 37.22367 128.71855 37118 ft 498 kts 112°
2026-05-04 23:36 37.19897 128.80096 37104 ft 508 kts 112°
2026-05-04 23:37 37.17374 128.88494 37108 ft 515 kts 112°
2026-05-04 23:37 37.14828 128.96945 37109 ft 515 kts 112°
2026-05-04 23:38 37.12272 129.05394 37105 ft 517 kts 112°
2026-05-04 23:38 37.09711 129.13852 37122 ft 517 kts 112°
2026-05-04 23:39 37.07152 129.22261 37123 ft 516 kts 113°
2026-05-04 23:39 37.04584 129.30681 37096 ft 517 kts 113°
2026-05-04 23:40 37.02004 129.39114 37123 ft 519 kts 113°
2026-05-04 23:40 36.99387 129.47631 37117 ft 519 kts 113°
2026-05-04 23:41 36.96795 129.56068 37105 ft 519 kts 113°
2026-05-04 23:41 36.94187 129.64518 37101 ft 519 kts 113°
2026-05-04 23:42 36.91573 129.72955 37090 ft 519 kts 114°
2026-05-04 23:42 36.88950 129.81408 37094 ft 522 kts 114°
2026-05-04 23:43 36.86317 129.89860 37108 ft 522 kts 114°
2026-05-04 23:43 36.83672 129.98324 37074 ft 521 kts 114°
2026-05-04 23:44 36.81019 130.06794 37086 ft 523 kts 114°
2026-05-04 23:44 36.78353 130.15274 37083 ft 522 kts 114°
2026-05-04 23:45 36.75692 130.23723 37092 ft 524 kts 114°
2026-05-04 23:45 36.73001 130.32239 37095 ft 525 kts 114°
2026-05-04 23:46 36.70317 130.40699 37090 ft 524 kts 114°
2026-05-04 23:46 36.67629 130.49158 37106 ft 525 kts 114°
2026-05-04 23:47 36.64926 130.57632 37126 ft 526 kts 114°
2026-05-04 23:47 36.62200 130.66153 37117 ft 526 kts 115°
2026-05-04 23:48 36.59482 130.74626 37112 ft 526 kts 115°
2026-05-04 23:48 36.56754 130.83111 37118 ft 526 kts 115°
2026-05-04 23:49 36.54012 130.91608 37118 ft 526 kts 115°
2026-05-04 23:49 36.51267 131.00096 37127 ft 528 kts 115°
2026-05-04 23:50 36.48516 131.08579 37124 ft 526 kts 115°
2026-05-04 23:50 36.45756 131.17056 37141 ft 529 kts 115°
2026-05-04 23:51 36.42977 131.25563 37114 ft 529 kts 116°
2026-05-04 23:51 36.40205 131.34037 37136 ft 530 kts 116°
2026-05-04 23:52 36.37466 131.42540 37137 ft 531 kts 112°
2026-05-04 23:52 36.36734 131.47072 37081 ft 539 kts 94°
2026-05-04 23:52 36.36866 131.51745 37198 ft 539 kts 87°
2026-05-04 23:53 36.36760 131.61066 37154 ft 541 kts 93°
2026-05-04 23:53 36.36476 131.70425 37121 ft 540 kts 94°
2026-05-04 23:54 36.36174 131.79757 37127 ft 542 kts 94°
2026-05-04 23:54 36.35867 131.89158 37140 ft 543 kts 95°
2026-05-04 23:55 36.35551 131.98501 37136 ft 542 kts 94°
2026-05-04 23:56 36.35063 132.12565 37141 ft 544 kts 94°
2026-05-04 23:56 36.34727 132.21995 37141 ft 544 kts 94°
2026-05-04 23:57 36.34385 132.31380 37141 ft 544 kts 95°
2026-05-04 23:57 36.34032 132.40821 37143 ft 544 kts 94°
2026-05-04 23:58 36.33672 132.50257 37165 ft 546 kts 94°
2026-05-04 23:58 36.33303 132.59708 37166 ft 546 kts 94°
2026-05-04 23:59 36.32930 132.69145 37136 ft 546 kts 95°
2026-05-04 23:59 36.32548 132.78570 37151 ft 546 kts 95°
2026-05-05 00:00 36.32160 132.88045 37152 ft 547 kts 95°
2026-05-05 00:00 36.31763 132.97515 37152 ft 547 kts 96°
2026-05-05 00:01 36.31351 133.06972 37163 ft 550 kts 96°
2026-05-05 00:01 36.30941 133.16491 37143 ft 548 kts 96°
2026-05-05 00:02 36.30518 133.25928 37147 ft 550 kts 96°
2026-05-05 00:02 36.30089 133.35436 37157 ft 553 kts 96°
2026-05-05 00:03 36.29653 133.44949 37159 ft 551 kts 95°
2026-05-05 00:03 36.29205 133.54499 37173 ft 553 kts 96°
2026-05-05 00:04 36.28755 133.64000 37170 ft 553 kts 96°
2026-05-05 00:04 36.28295 133.73576 37148 ft 552 kts 96°
2026-05-05 00:05 36.27814 133.83154 37158 ft 556 kts 96°
2026-05-05 00:05 36.27336 133.92762 37161 ft 555 kts 96°
2026-05-05 00:06 36.26849 134.02330 37158 ft 555 kts 96°
2026-05-05 00:06 36.26353 134.11920 37173 ft 558 kts 97°
2026-05-05 00:07 36.25848 134.21570 37169 ft 557 kts 97°
2026-05-05 00:07 36.25332 134.31196 37177 ft 558 kts 97°
2026-05-05 00:08 36.24809 134.40811 37173 ft 559 kts 97°
2026-05-05 00:08 36.24331 134.50508 37166 ft 561 kts 93°
2026-05-05 00:08 36.24789 134.55305 37154 ft 562 kts 76°
2026-05-05 00:09 36.25836 134.59982 37239 ft 563 kts 75°
2026-05-05 00:09 36.27527 134.69548 37171 ft 566 kts 78°
2026-05-05 00:10 36.29130 134.79098 37178 ft 565 kts 79°
2026-05-05 00:10 36.30731 134.88693 37176 ft 566 kts 79°
2026-05-05 00:11 36.32310 134.98273 37182 ft 567 kts 79°
2026-05-05 00:11 36.33893 135.07872 37182 ft 567 kts 79°
2026-05-05 00:12 36.35472 135.17500 37193 ft 569 kts 79°
2026-05-05 00:12 36.37043 135.27128 37197 ft 569 kts 79°
2026-05-05 00:13 36.38595 135.36736 37198 ft 569 kts 79°
2026-05-05 00:13 36.40157 135.46404 37199 ft 571 kts 79°
2026-05-05 00:14 36.41716 135.56109 37206 ft 572 kts 79°
2026-05-05 00:14 36.43257 135.65816 37196 ft 572 kts 80°
2026-05-05 00:15 36.44807 135.75549 37188 ft 572 kts 81°
2026-05-05 00:15 36.46344 135.85323 37195 ft 573 kts 80°
2026-05-05 00:16 36.47875 135.95086 37201 ft 574 kts 80°
2026-05-05 00:16 36.49407 136.04882 37200 ft 575 kts 80°
2026-05-05 00:17 36.50928 136.14674 37194 ft 576 kts 80°
2026-05-05 00:17 36.52448 136.24525 37204 ft 575 kts 80°
2026-05-05 00:18 36.53959 136.34375 37201 ft 576 kts 79°
2026-05-05 00:18 36.55455 136.44220 37206 ft 577 kts 80°
2026-05-05 00:19 36.56961 136.54137 37198 ft 576 kts 80°
2026-05-05 00:19 36.58447 136.64016 37207 ft 578 kts 80°
2026-05-05 00:20 36.59922 136.73865 37182 ft 578 kts 81°
2026-05-05 00:20 36.61401 136.83798 37173 ft 579 kts 81°
2026-05-05 00:21 36.62882 136.93757 37186 ft 580 kts 81°
2026-05-05 00:21 36.64318 137.03734 37176 ft 579 kts 82°
2026-05-05 00:22 36.65752 137.13706 37175 ft 581 kts 81°
2026-05-05 00:22 36.67177 137.23686 37174 ft 580 kts 81°
2026-05-05 00:23 36.68590 137.33685 37182 ft 582 kts 81°
2026-05-05 00:23 36.69997 137.43686 37170 ft 581 kts 81°
2026-05-05 00:24 36.71398 137.53693 37159 ft 581 kts 82°
2026-05-05 00:24 36.72793 137.63734 37116 ft 582 kts 81°
2026-05-05 00:25 36.74179 137.73736 37074 ft 582 kts 82°
2026-05-05 00:25 36.75430 137.82862 37095 ft 584 kts 83°
2026-05-05 00:26 36.76809 137.92936 37099 ft 584 kts 82°
2026-05-05 00:26 36.78166 138.02997 37124 ft 584 kts 82°
2026-05-05 00:27 36.79538 138.13030 37160 ft 584 kts 81°
2026-05-05 00:27 36.80924 138.23090 37187 ft 585 kts 82°
2026-05-05 00:28 36.82303 138.33191 37180 ft 585 kts 82°
2026-05-05 00:28 36.83667 138.43247 37157 ft 585 kts 82°
2026-05-05 00:29 36.85022 138.53315 37142 ft 586 kts 82°
2026-05-05 00:29 36.86353 138.63453 37144 ft 584 kts 82°
2026-05-05 00:30 36.87653 138.73306 37127 ft 585 kts 83°
2026-05-05 00:30 36.88968 138.83429 37142 ft 587 kts 83°
2026-05-05 00:31 36.90274 138.93557 37140 ft 587 kts 83°
2026-05-05 00:31 36.91586 139.03731 37155 ft 586 kts 83°
2026-05-05 00:32 36.92896 139.13873 37150 ft 587 kts 83°
2026-05-05 00:32 36.94226 139.24043 37136 ft 588 kts 83°
2026-05-05 00:33 36.95538 139.34273 37111 ft 590 kts 83°
2026-05-05 00:33 36.96855 139.44504 37106 ft 590 kts 83°
2026-05-05 00:34 36.98154 139.54743 37100 ft 590 kts 83°
2026-05-05 00:34 36.99446 139.64988 37112 ft 590 kts 83°
2026-05-05 00:35 37.00711 139.75042 37080 ft 589 kts 84°
2026-05-05 00:35 37.01983 139.85280 37084 ft 594 kts 84°
2026-05-05 00:36 37.03268 139.95570 37103 ft 593 kts 83°
2026-05-05 00:36 37.04517 140.05876 37130 ft 593 kts 83°
2026-05-05 00:37 37.05777 140.16194 37112 ft 593 kts 83°
2026-05-05 00:37 37.07030 140.26500 37107 ft 591 kts 84°
2026-05-05 00:37 37.07641 140.31566 37106 ft 575 kts 84°
2026-05-05 00:38 37.08233 140.36506 36852 ft 565 kts 85°
2026-05-05 00:38 37.08820 140.41444 36391 ft 559 kts 85°
2026-05-05 00:38 37.09396 140.46251 35941 ft 554 kts 85°
2026-05-05 00:38 37.09971 140.51068 35487 ft 549 kts 85°
2026-05-05 00:39 37.10370 140.55625 35001 ft 538 kts 95°
2026-05-05 00:39 37.09886 140.60099 34543 ft 508 kts 118°
2026-05-05 00:39 37.08428 140.63989 34055 ft 468 kts 139°
2026-05-05 00:39 37.06595 140.67128 33661 ft 456 kts 142°
2026-05-05 00:40 37.04710 140.70382 33196 ft 451 kts 142°
2026-05-05 00:40 37.02834 140.73555 32758 ft 447 kts 144°
2026-05-05 00:40 37.00660 140.76211 32289 ft 417 kts 164°
2026-05-05 00:40 36.98089 140.77542 31912 ft 384 kts 185°
2026-05-05 00:41 36.95504 140.77535 31293 ft 355 kts 205°
2026-05-05 00:41 36.93150 140.76751 30829 ft 345 kts 207°
2026-05-05 00:41 36.90817 140.76033 30328 ft 338 kts 207°
2026-05-05 00:41 36.88548 140.75227 29864 ft 331 kts 209°
2026-05-05 00:42 36.86374 140.74442 29411 ft 324 kts 209°
2026-05-05 00:42 36.84240 140.73657 28969 ft 319 kts 210°
2026-05-05 00:42 36.82111 140.72851 28547 ft 319 kts 210°
2026-05-05 00:42 36.79920 140.72007 28110 ft 337 kts 210°
2026-05-05 00:43 36.77598 140.71106 27673 ft 360 kts 208°
2026-05-05 00:43 36.75134 140.70169 27173 ft 367 kts 208°
2026-05-05 00:43 36.72659 140.69236 26576 ft 363 kts 208°
2026-05-05 00:43 36.70234 140.68317 26091 ft 357 kts 208°
2026-05-05 00:44 36.67862 140.67421 25603 ft 349 kts 209°
2026-05-05 00:44 36.65542 140.66535 25162 ft 342 kts 208°
2026-05-05 00:44 36.63263 140.65667 24723 ft 337 kts 209°
2026-05-05 00:44 36.61021 140.64820 24289 ft 336 kts 209°
2026-05-05 00:45 36.58712 140.63911 23869 ft 357 kts 208°
2026-05-05 00:45 36.56251 140.62973 23416 ft 365 kts 207°
2026-05-05 00:45 36.53809 140.62051 22950 ft 361 kts 208°
2026-05-05 00:45 36.51343 140.61111 22513 ft 374 kts 208°
2026-05-05 00:46 36.48841 140.60163 22056 ft 370 kts 207°
2026-05-05 00:46 36.46347 140.59217 21612 ft 374 kts 207°
2026-05-05 00:46 36.43852 140.58270 21164 ft 370 kts 206°
2026-05-05 00:46 36.41498 140.57381 20735 ft 363 kts 206°
2026-05-05 00:47 36.39067 140.56460 20299 ft 355 kts 206°
2026-05-05 00:47 36.36704 140.55573 19884 ft 350 kts 206°
2026-05-05 00:47 36.34302 140.54730 19505 ft 368 kts 200°
2026-05-05 00:47 36.31670 140.54817 19366 ft 386 kts 176°
2026-05-05 00:48 36.29133 140.56253 18966 ft 409 kts 152°
2026-05-05 00:48 36.27149 140.58886 18564 ft 421 kts 129°
2026-05-05 00:48 36.25512 140.61881 18179 ft 410 kts 134°
2026-05-05 00:48 36.23665 140.64607 17857 ft 402 kts 136°
2026-05-05 00:49 36.21856 140.67203 17644 ft 391 kts 138°
2026-05-05 00:49 36.20012 140.69716 17265 ft 389 kts 139°
2026-05-05 00:49 36.18158 140.72218 16883 ft 389 kts 139°
2026-05-05 00:49 36.16311 140.74690 16505 ft 386 kts 139°
2026-05-05 00:50 36.14466 140.77144 16126 ft 382 kts 138°
2026-05-05 00:50 36.12576 140.79382 16004 ft 359 kts 151°
2026-05-05 00:50 36.10358 140.80663 15718 ft 339 kts 171°
2026-05-05 00:50 36.08076 140.81600 15411 ft 342 kts 168°
2026-05-05 00:51 36.05834 140.82616 15323 ft 334 kts 169°
2026-05-05 00:51 36.03650 140.83576 15142 ft 326 kts 169°
2026-05-05 00:51 36.01502 140.84525 14804 ft 321 kts 169°
2026-05-05 00:51 35.99386 140.85455 14485 ft 317 kts 169°
2026-05-05 00:52 35.97301 140.86376 14160 ft 314 kts 169°
2026-05-05 00:52 35.95226 140.87294 13827 ft 310 kts 169°
2026-05-05 00:52 35.93173 140.88196 13507 ft 306 kts 169°
2026-05-05 00:52 35.91160 140.89084 13189 ft 304 kts 168°
2026-05-05 00:53 35.89204 140.89945 12882 ft 303 kts 168°
2026-05-05 00:53 35.87208 140.90821 12567 ft 300 kts 167°
2026-05-05 00:53 35.85264 140.91684 12476 ft 287 kts 168°
2026-05-05 00:53 35.83391 140.92508 12252 ft 281 kts 168°
2026-05-05 00:54 35.81528 140.93328 11961 ft 278 kts 167°
2026-05-05 00:54 35.79708 140.94124 11681 ft 275 kts 167°
2026-05-05 00:54 35.77905 140.94916 11391 ft 274 kts 167°
2026-05-05 00:54 35.76074 140.95568 11087 ft 270 kts 180°
2026-05-05 00:55 35.74301 140.95174 10766 ft 253 kts 213°
2026-05-05 00:55 35.72949 140.93869 10518 ft 244 kts 223°
2026-05-05 00:55 35.71543 140.92626 10231 ft 249 kts 218°
2026-05-05 00:55 35.70135 140.91378 9930 ft 246 kts 219°
2026-05-05 00:56 35.68752 140.90150 9635 ft 243 kts 219°
2026-05-05 00:56 35.67364 140.88930 9152 ft 249 kts 220°
2026-05-05 00:56 35.65943 140.87666 8645 ft 254 kts 220°
2026-05-05 00:56 35.64506 140.86395 8303 ft 253 kts 220°
2026-05-05 00:57 35.63082 140.85139 8002 ft 250 kts 220°
2026-05-05 00:57 35.61678 140.83894 7746 ft 248 kts 220°
2026-05-05 00:57 35.60240 140.82621 7492 ft 254 kts 220°
2026-05-05 00:57 35.58801 140.81352 7237 ft 254 kts 220°
2026-05-05 00:58 35.57365 140.80080 6983 ft 254 kts 220°
2026-05-05 00:58 35.56413 140.79241 6810 ft 253 kts 220°
2026-05-05 00:58 35.54514 140.77571 6467 ft 249 kts 221°
2026-05-05 00:58 35.53116 140.76337 6206 ft 245 kts 220°
2026-05-05 00:59 35.51893 140.74948 5921 ft 236 kts 238°
2026-05-05 00:59 35.50939 140.73320 5666 ft 233 kts 238°
2026-05-05 00:59 35.49934 140.71769 5414 ft 231 kts 238°
2026-05-05 00:59 35.48957 140.70217 5153 ft 229 kts 237°
2026-05-05 01:00 35.47984 140.68682 4889 ft 227 kts 238°
2026-05-05 01:00 35.47019 140.67161 4634 ft 225 kts 238°
2026-05-05 01:00 35.46057 140.65638 4385 ft 225 kts 239°
2026-05-05 01:00 35.45424 140.63952 4108 ft 213 kts 271°
2026-05-05 01:01 35.45847 140.62323 4128 ft 198 kts 316°
2026-05-05 01:01 35.46890 140.61224 4198 ft 202 kts 321°
2026-05-05 01:01 35.47558 140.60418 4205 ft 201 kts 316°
2026-05-05 01:01 35.48570 140.59206 4154 ft 204 kts 320°
2026-05-05 01:02 35.49944 140.57621 4139 ft 202 kts 320°
2026-05-05 01:02 35.50969 140.56445 4146 ft 201 kts 320°
2026-05-05 01:02 35.51996 140.55270 4142 ft 202 kts 321°
2026-05-05 01:02 35.53140 140.54274 4140 ft 199 kts 330°
2026-05-05 01:03 35.53929 140.53694 4143 ft 200 kts 331°
2026-05-05 01:03 35.55524 140.52548 4134 ft 200 kts 332°
2026-05-05 01:03 35.56324 140.51987 4140 ft 197 kts 332°
2026-05-05 01:03 35.57876 140.50875 3872 ft 187 kts 331°
2026-05-05 01:04 35.58959 140.50092 3674 ft 173 kts 332°
2026-05-05 01:04 35.60596 140.48920 3321 ft 153 kts 333°
2026-05-05 01:04 35.61480 140.48285 3101 ft 142 kts 333°
2026-05-05 01:05 35.62292 140.47701 2892 ft 129 kts 334°
2026-05-05 01:05 35.63043 140.47171 2697 ft 123 kts 333°
2026-05-05 01:05 35.63794 140.46637 2551 ft 127 kts 333°
2026-05-05 01:05 35.64835 140.45897 2339 ft 132 kts 333°
2026-05-05 01:06 35.65369 140.45513 2218 ft 132 kts 332°
2026-05-05 01:06 35.66170 140.44938 2047 ft 133 kts 332°
2026-05-05 01:06 35.66971 140.44362 1861 ft 133 kts 333°
2026-05-05 01:06 35.67772 140.43786 1684 ft 133 kts 333°
2026-05-05 01:07 35.68571 140.43213 1491 ft 133 kts 332°
2026-05-05 01:07 35.69369 140.42640 1309 ft 133 kts 332°
2026-05-05 01:07 35.70182 140.42056 1129 ft 134 kts 330°
2026-05-05 01:07 35.71253 140.41272 885 ft 135 kts 331°
2026-05-05 01:08 35.71805 140.40888 766 ft 136 kts 331°
2026-05-05 01:08 35.72620 140.40300 582 ft 137 kts 329°
2026-05-05 01:08 35.73438 140.39698 405 ft 137 kts 329°
2026-05-05 01:08 35.74268 140.39114 206 ft 138 kts 331°
2026-05-05 01:09 35.75072 140.38530 157 ft 122 kts 330°
2026-05-05 01:09 35.75607 140.38179 153 ft 59 kts 345°
2026-05-05 01:09 35.75845 140.38107 154 ft 0 kts 355°
2026-05-05 01:10 35.75847 140.38107 154 ft 1 kts 355°
2026-05-05 01:10 35.75867 140.38103 154 ft 5 kts 351°
2026-05-05 01:11 35.75923 140.38094 153 ft 10 kts 359°
2026-05-05 01:11 35.75975 140.38103 154 ft 0 kts 13°
2026-05-05 01:12 35.75976 140.38104 154 ft 1 kts 20°
2026-05-05 01:12 35.75992 140.38136 154 ft 10 kts 63°
2026-05-05 01:12 35.76033 140.38233 149 ft 15 kts 62°
2026-05-05 01:13 35.76087 140.38330 146 ft 10 kts 54°
2026-05-05 01:13 35.76106 140.38365 147 ft 2 kts 58°
2026-05-05 01:13 35.76114 140.38381 147 ft 2 kts 60°
2026-05-05 01:13 35.76118 140.38389 148 ft 0 kts 59°
2026-05-05 01:14 35.76123 140.38400 148 ft 2 kts 60°
2026-05-05 01:14 35.76125 140.38406 148 ft 1 kts 59°
2026-05-05 01:14 35.76128 140.38411 148 ft 0 kts 60°